GLO1740 SBBR-SBBV

Flight info

Callsign GLO1740
Flight time 3h 19m
Altitude 38000
Route ILKUS DCT OPNAX UZ24 ILVIS DCT
Aircraft B737/M-SDFGIKLORWXY/LB1

Departure

Time 2026-05-05 20:44
Airport Presidente Juscelino Kubitschek International Airport (SBBR)

Arrival

Time 2026-05-06 00:03
Airport Atlas Brasil Cantanhede International Airport (SBBV)
Time Latitude Longitude Altitude Speed Heading
2026-05-05 20:13 -15.86714 -47.91933 3471 ft 0 kts 176°
2026-05-05 20:22 -15.86699 -47.91934 3469 ft 3 kts 178°
2026-05-05 20:23 -15.86679 -47.91934 3471 ft 3 kts 181°
2026-05-05 20:23 -15.86659 -47.91933 3471 ft 3 kts 186°
2026-05-05 20:23 -15.86639 -47.91930 3471 ft 3 kts 199°
2026-05-05 20:23 -15.86622 -47.91921 3471 ft 3 kts 236°
2026-05-05 20:24 -15.86618 -47.91910 3470 ft 1 kts 266°
2026-05-05 20:24 -15.86618 -47.91907 3470 ft 0 kts 266°
2026-05-05 20:32 -15.86618 -47.91915 3469 ft 4 kts 266°
2026-05-05 20:32 -15.86621 -47.91950 3471 ft 5 kts 266°
2026-05-05 20:32 -15.86623 -47.91986 3471 ft 5 kts 266°
2026-05-05 20:33 -15.86626 -47.92020 3470 ft 5 kts 265°
2026-05-05 20:33 -15.86628 -47.92055 3471 ft 5 kts 265°
2026-05-05 20:33 -15.86631 -47.92088 3471 ft 5 kts 265°
2026-05-05 20:33 -15.86632 -47.92121 3471 ft 5 kts 269°
2026-05-05 20:34 -15.86633 -47.92154 3471 ft 4 kts 269°
2026-05-05 20:34 -15.86626 -47.92185 3471 ft 5 kts 295°
2026-05-05 20:34 -15.86613 -47.92214 3470 ft 4 kts 295°
2026-05-05 20:34 -15.86600 -47.92242 3471 ft 4 kts 298°
2026-05-05 20:35 -15.86585 -47.92270 3470 ft 4 kts 297°
2026-05-05 20:35 -15.86572 -47.92297 3470 ft 4 kts 297°
2026-05-05 20:35 -15.86557 -47.92323 3470 ft 4 kts 302°
2026-05-05 20:35 -15.86542 -47.92348 3469 ft 4 kts 302°
2026-05-05 20:36 -15.86528 -47.92373 3468 ft 4 kts 292°
2026-05-05 20:36 -15.86528 -47.92382 3469 ft 0 kts 272°
2026-05-05 20:36 -15.86529 -47.92420 3468 ft 7 kts 266°
2026-05-05 20:37 -15.86532 -47.92468 3468 ft 6 kts 266°
2026-05-05 20:37 -15.86535 -47.92514 3467 ft 6 kts 267°
2026-05-05 20:37 -15.86537 -47.92559 3466 ft 6 kts 265°
2026-05-05 20:37 -15.86538 -47.92568 3465 ft 0 kts 265°
2026-05-05 20:41 -15.86539 -47.92585 3466 ft 7 kts 265°
2026-05-05 20:41 -15.86543 -47.92639 3465 ft 8 kts 267°
2026-05-05 20:42 -15.86546 -47.92693 3464 ft 7 kts 266°
2026-05-05 20:42 -15.86544 -47.92744 3463 ft 7 kts 295°
2026-05-05 20:42 -15.86499 -47.92764 3461 ft 8 kts 356°
2026-05-05 20:42 -15.86446 -47.92769 3460 ft 8 kts 356°
2026-05-05 20:43 -15.86399 -47.92751 3459 ft 7 kts 29°
2026-05-05 20:43 -15.86360 -47.92742 3459 ft 0 kts 29°
2026-05-05 20:43 -15.86356 -47.92726 3459 ft 9 kts 76°
2026-05-05 20:44 -15.86333 -47.92375 3464 ft 89 kts 86°
2026-05-05 20:44 -15.86284 -47.91474 3466 ft 158 kts 88°
2026-05-05 20:44 -15.86179 -47.90226 4132 ft 174 kts 83°
2026-05-05 20:44 -15.86039 -47.89014 5237 ft 173 kts 86°
2026-05-05 20:45 -15.85788 -47.86066 5923 ft 234 kts 83°
2026-05-05 20:45 -15.85061 -47.84535 6608 ft 246 kts 45°
2026-05-05 20:45 -15.83505 -47.83744 7341 ft 263 kts 11°
2026-05-05 20:46 -15.81625 -47.83906 7962 ft 284 kts 348°
2026-05-05 20:46 -15.79723 -47.84551 8933 ft 290 kts 341°
2026-05-05 20:46 -15.77838 -47.85337 9983 ft 293 kts 340°
2026-05-05 20:46 -15.75927 -47.86161 10680 ft 307 kts 340°
2026-05-05 20:47 -15.73828 -47.87057 10959 ft 333 kts 340°
2026-05-05 20:47 -15.71678 -47.87962 11612 ft 343 kts 340°
2026-05-05 20:47 -15.69439 -47.88894 12412 ft 348 kts 340°
2026-05-05 20:47 -15.67171 -47.89827 13218 ft 352 kts 340°
2026-05-05 20:48 -15.64872 -47.90766 13958 ft 358 kts 340°
2026-05-05 20:48 -15.62537 -47.91713 14605 ft 364 kts 340°
2026-05-05 20:48 -15.60160 -47.92674 15243 ft 370 kts 339°
2026-05-05 20:48 -15.57748 -47.93647 15911 ft 374 kts 339°
2026-05-05 20:49 -15.55297 -47.94634 16593 ft 379 kts 339°
2026-05-05 20:49 -15.52829 -47.95628 17254 ft 383 kts 338°
2026-05-05 20:49 -15.50325 -47.96636 17932 ft 388 kts 338°
2026-05-05 20:49 -15.47801 -47.97651 18604 ft 391 kts 338°
2026-05-05 20:50 -15.45246 -47.98678 19205 ft 395 kts 338°
2026-05-05 20:50 -15.42668 -47.99714 19799 ft 399 kts 338°
2026-05-05 20:50 -15.40071 -48.00758 20407 ft 402 kts 338°
2026-05-05 20:50 -15.37454 -48.01809 21007 ft 405 kts 338°
2026-05-05 20:51 -15.34841 -48.02858 21589 ft 409 kts 338°
2026-05-05 20:51 -15.32173 -48.03929 22162 ft 412 kts 338°
2026-05-05 20:51 -15.29487 -48.05006 22720 ft 416 kts 338°
2026-05-05 20:51 -15.26777 -48.06094 23278 ft 419 kts 337°
2026-05-05 20:52 -15.24037 -48.07193 23803 ft 423 kts 337°
2026-05-05 20:52 -15.21276 -48.08300 24250 ft 426 kts 337°
2026-05-05 20:52 -15.18500 -48.09412 24686 ft 430 kts 337°
2026-05-05 20:52 -15.15694 -48.10537 25108 ft 434 kts 337°
2026-05-05 20:53 -15.12866 -48.11670 25547 ft 437 kts 336°
2026-05-05 20:53 -15.10021 -48.12810 25981 ft 440 kts 336°
2026-05-05 20:53 -15.07152 -48.13959 26404 ft 444 kts 336°
2026-05-05 20:53 -15.04292 -48.15104 26815 ft 448 kts 336°
2026-05-05 20:54 -15.01377 -48.16270 27228 ft 451 kts 336°
2026-05-05 20:54 -14.98444 -48.17443 27636 ft 454 kts 336°
2026-05-05 20:54 -14.95483 -48.18627 28026 ft 457 kts 335°
2026-05-05 20:54 -14.92584 -48.19996 28393 ft 457 kts 327°
2026-05-05 20:55 -14.89931 -48.21784 28760 ft 455 kts 317°
2026-05-05 20:55 -14.87481 -48.23864 29159 ft 456 kts 316°
2026-05-05 20:55 -14.85053 -48.25997 29538 ft 459 kts 315°
2026-05-05 20:55 -14.82617 -48.28151 29879 ft 462 kts 315°
2026-05-05 20:56 -14.80163 -48.30313 30203 ft 465 kts 315°
2026-05-05 20:56 -14.77678 -48.32487 30486 ft 469 kts 315°
2026-05-05 20:56 -14.75177 -48.34659 30788 ft 471 kts 315°
2026-05-05 20:56 -14.72691 -48.36806 31105 ft 472 kts 315°
2026-05-05 20:57 -14.70164 -48.38982 31410 ft 474 kts 315°
2026-05-05 20:57 -14.67621 -48.41169 31741 ft 475 kts 315°
2026-05-05 20:57 -14.65080 -48.43352 32159 ft 474 kts 315°
2026-05-05 20:57 -14.62545 -48.45528 32610 ft 473 kts 315°
2026-05-05 20:58 -14.60015 -48.47702 33043 ft 472 kts 315°
2026-05-05 20:58 -14.57493 -48.49868 33430 ft 472 kts 315°
2026-05-05 20:58 -14.54964 -48.52041 33815 ft 473 kts 315°
2026-05-05 20:58 -14.52438 -48.54212 34192 ft 472 kts 315°
2026-05-05 20:59 -14.49916 -48.56378 34570 ft 470 kts 315°
2026-05-05 20:59 -14.47410 -48.58527 35007 ft 467 kts 315°
2026-05-05 20:59 -14.44922 -48.60661 35463 ft 463 kts 315°
2026-05-05 20:59 -14.42451 -48.62779 35873 ft 460 kts 315°
2026-05-05 21:00 -14.39995 -48.64885 36236 ft 458 kts 315°
2026-05-05 21:00 -14.37554 -48.66980 36574 ft 456 kts 315°
2026-05-05 21:00 -14.35120 -48.69066 36964 ft 453 kts 314°
2026-05-05 21:00 -14.32735 -48.71110 37390 ft 449 kts 314°
2026-05-05 21:01 -14.30309 -48.73187 37786 ft 446 kts 314°
2026-05-05 21:01 -14.27959 -48.75200 38066 ft 446 kts 314°
2026-05-05 21:01 -14.23157 -48.79318 38043 ft 450 kts 314°
2026-05-05 21:02 -14.18357 -48.83423 38027 ft 444 kts 315°
2026-05-05 21:02 -14.14420 -48.86788 38046 ft 441 kts 315°
2026-05-05 21:03 -14.09698 -48.90825 38037 ft 440 kts 315°
2026-05-05 21:03 -14.04979 -48.94859 38031 ft 440 kts 315°
2026-05-05 21:04 -14.00267 -48.98882 38032 ft 439 kts 315°
2026-05-05 21:04 -13.95586 -49.02878 38030 ft 439 kts 315°
2026-05-05 21:05 -13.90879 -49.06893 38031 ft 439 kts 315°
2026-05-05 21:05 -13.86175 -49.10904 38029 ft 439 kts 315°
2026-05-05 21:06 -13.81457 -49.14913 38017 ft 441 kts 317°
2026-05-05 21:06 -13.76229 -49.18304 38021 ft 447 kts 325°
2026-05-05 21:07 -13.70790 -49.21436 38016 ft 448 kts 326°
2026-05-05 21:07 -13.65362 -49.24574 38015 ft 448 kts 325°
2026-05-05 21:08 -13.59950 -49.27745 38010 ft 448 kts 325°
2026-05-05 21:08 -13.54541 -49.30930 38004 ft 448 kts 325°
2026-05-05 21:09 -13.49136 -49.34114 38008 ft 448 kts 325°
2026-05-05 21:09 -13.43763 -49.37275 38007 ft 447 kts 325°
2026-05-05 21:10 -13.38357 -49.40454 38003 ft 447 kts 325°
2026-05-05 21:10 -13.32963 -49.43624 38004 ft 447 kts 325°
2026-05-05 21:11 -13.27571 -49.46792 37995 ft 446 kts 325°
2026-05-05 21:11 -13.22176 -49.49958 37998 ft 446 kts 326°
2026-05-05 21:12 -13.16777 -49.53127 37990 ft 446 kts 326°
2026-05-05 21:12 -13.11424 -49.56267 37990 ft 446 kts 326°
2026-05-05 21:13 -13.06033 -49.59427 37993 ft 445 kts 326°
2026-05-05 21:13 -13.00653 -49.62581 37994 ft 445 kts 326°
2026-05-05 21:14 -12.95265 -49.65736 37995 ft 445 kts 326°
2026-05-05 21:14 -12.89902 -49.68901 37994 ft 445 kts 326°
2026-05-05 21:15 -12.84566 -49.72065 37995 ft 445 kts 326°
2026-05-05 21:15 -12.79192 -49.75250 37995 ft 446 kts 326°
2026-05-05 21:16 -12.73817 -49.78432 37995 ft 446 kts 326°
2026-05-05 21:16 -12.68425 -49.81620 37998 ft 447 kts 326°
2026-05-05 21:17 -12.63072 -49.84784 37990 ft 447 kts 326°
2026-05-05 21:17 -12.57673 -49.87973 37992 ft 448 kts 326°
2026-05-05 21:18 -12.52274 -49.91161 37991 ft 448 kts 326°
2026-05-05 21:18 -12.46859 -49.94357 37990 ft 449 kts 326°
2026-05-05 21:19 -12.41441 -49.97552 37983 ft 449 kts 326°
2026-05-05 21:19 -12.36052 -50.00730 37991 ft 450 kts 326°
2026-05-05 21:20 -12.30633 -50.03923 37987 ft 450 kts 326°
2026-05-05 21:20 -12.25203 -50.07122 37990 ft 450 kts 327°
2026-05-05 21:21 -12.19767 -50.10322 37991 ft 450 kts 327°
2026-05-05 21:21 -12.14347 -50.13511 37987 ft 449 kts 327°
2026-05-05 21:22 -12.08954 -50.16684 37991 ft 449 kts 327°
2026-05-05 21:22 -12.03529 -50.19873 37990 ft 449 kts 327°
2026-05-05 21:23 -11.98102 -50.23062 37987 ft 449 kts 327°
2026-05-05 21:23 -11.92692 -50.26240 37985 ft 449 kts 327°
2026-05-05 21:24 -11.87280 -50.29417 37984 ft 448 kts 327°
2026-05-05 21:24 -11.81872 -50.32590 37985 ft 448 kts 327°
2026-05-05 21:25 -11.76498 -50.35742 37983 ft 448 kts 327°
2026-05-05 21:25 -11.71084 -50.38917 37977 ft 447 kts 327°
2026-05-05 21:26 -11.65686 -50.42080 37976 ft 447 kts 327°
2026-05-05 21:26 -11.60287 -50.45243 37983 ft 447 kts 327°
2026-05-05 21:27 -11.54928 -50.48380 37978 ft 447 kts 327°
2026-05-05 21:27 -11.49536 -50.51537 37980 ft 447 kts 327°
2026-05-05 21:28 -11.44143 -50.54693 37984 ft 447 kts 327°
2026-05-05 21:28 -11.38752 -50.57845 37980 ft 446 kts 327°
2026-05-05 21:29 -11.33359 -50.61000 37983 ft 447 kts 327°
2026-05-05 21:29 -11.27970 -50.64153 37981 ft 447 kts 327°
2026-05-05 21:30 -11.22613 -50.67286 37980 ft 447 kts 327°
2026-05-05 21:30 -11.17221 -50.70438 37982 ft 447 kts 327°
2026-05-05 21:31 -11.11828 -50.73590 37977 ft 447 kts 327°
2026-05-05 21:31 -11.06425 -50.76746 37971 ft 447 kts 327°
2026-05-05 21:32 -11.01017 -50.79904 37981 ft 448 kts 327°
2026-05-05 21:32 -10.95599 -50.83066 37974 ft 448 kts 327°
2026-05-05 21:33 -10.90213 -50.86208 37975 ft 449 kts 327°
2026-05-05 21:33 -10.84794 -50.89368 37973 ft 449 kts 327°
2026-05-05 21:34 -10.79373 -50.92529 37976 ft 449 kts 327°
2026-05-05 21:34 -10.73940 -50.95694 37978 ft 450 kts 327°
2026-05-05 21:35 -10.68512 -50.98855 37977 ft 450 kts 327°
2026-05-05 21:35 -10.63076 -51.02020 37978 ft 450 kts 327°
2026-05-05 21:36 -10.57643 -51.05183 37986 ft 450 kts 327°
2026-05-05 21:36 -10.52231 -51.08331 37979 ft 450 kts 327°
2026-05-05 21:37 -10.46910 -51.11674 37977 ft 449 kts 324°
2026-05-05 21:37 -10.41693 -51.15165 37968 ft 449 kts 324°
2026-05-05 21:38 -10.36473 -51.18657 37984 ft 448 kts 324°
2026-05-05 21:38 -10.31249 -51.22120 37989 ft 448 kts 324°
2026-05-05 21:39 -10.26024 -51.25566 37972 ft 448 kts 324°
2026-05-05 21:39 -10.20801 -51.29005 37979 ft 448 kts 324°
2026-05-05 21:40 -10.15570 -51.32448 37973 ft 447 kts 324°
2026-05-05 21:40 -10.10352 -51.35883 37974 ft 447 kts 324°
2026-05-05 21:41 -10.05169 -51.39293 37976 ft 447 kts 324°
2026-05-05 21:41 -9.99955 -51.42723 37979 ft 446 kts 324°
2026-05-05 21:42 -9.94750 -51.46145 37979 ft 446 kts 324°
2026-05-05 21:42 -9.89546 -51.49565 37980 ft 446 kts 324°
2026-05-05 21:43 -9.84343 -51.52984 37980 ft 445 kts 324°
2026-05-05 21:43 -9.79138 -51.56402 37976 ft 445 kts 324°
2026-05-05 21:44 -9.73930 -51.59821 37976 ft 445 kts 324°
2026-05-05 21:44 -9.68726 -51.63236 37971 ft 445 kts 324°
2026-05-05 21:45 -9.63567 -51.66621 37976 ft 444 kts 324°
2026-05-05 21:45 -9.58369 -51.70029 37970 ft 444 kts 324°
2026-05-05 21:46 -9.53176 -51.73434 37977 ft 444 kts 324°
2026-05-05 21:46 -9.48011 -51.76818 37970 ft 444 kts 324°
2026-05-05 21:47 -9.42826 -51.80214 37969 ft 444 kts 324°
2026-05-05 21:47 -9.37628 -51.83618 37968 ft 444 kts 324°
2026-05-05 21:48 -9.32435 -51.87017 37965 ft 445 kts 324°
2026-05-05 21:48 -9.27229 -51.90424 37969 ft 445 kts 324°
2026-05-05 21:49 -9.22034 -51.93822 37967 ft 445 kts 324°
2026-05-05 21:49 -9.16834 -51.97222 37963 ft 444 kts 324°
2026-05-05 21:50 -9.11643 -52.00615 37956 ft 444 kts 325°
2026-05-05 21:50 -9.06476 -52.03991 37958 ft 444 kts 325°
2026-05-05 21:51 -9.01282 -52.07383 37956 ft 444 kts 325°
2026-05-05 21:51 -8.96085 -52.10777 37960 ft 444 kts 325°
2026-05-05 21:52 -8.89135 -52.15313 37962 ft 444 kts 325°
2026-05-05 21:53 -8.83969 -52.18684 37955 ft 444 kts 325°
2026-05-05 21:53 -8.78773 -52.22073 37952 ft 444 kts 325°
2026-05-05 21:54 -8.73579 -52.25460 37957 ft 444 kts 325°
2026-05-05 21:54 -8.68380 -52.28848 37957 ft 444 kts 325°
2026-05-05 21:55 -8.63213 -52.32216 37958 ft 444 kts 325°
2026-05-05 21:55 -8.58019 -52.35600 37959 ft 444 kts 325°
2026-05-05 21:56 -8.52817 -52.38991 37953 ft 444 kts 325°
2026-05-05 21:56 -8.47627 -52.42377 37952 ft 444 kts 325°
2026-05-05 21:57 -8.42456 -52.45752 37958 ft 444 kts 325°
2026-05-05 21:57 -8.37261 -52.49141 37956 ft 444 kts 325°
2026-05-05 21:58 -8.32076 -52.52523 37951 ft 444 kts 325°
2026-05-05 21:58 -8.26881 -52.55909 37954 ft 444 kts 326°
2026-05-05 21:59 -8.21687 -52.59294 37950 ft 444 kts 326°
2026-05-05 21:59 -8.16495 -52.62676 37951 ft 443 kts 326°
2026-05-05 22:00 -8.11343 -52.66032 37949 ft 443 kts 326°
2026-05-05 22:00 -8.06151 -52.69413 37953 ft 443 kts 326°
2026-05-05 22:01 -8.00973 -52.72783 37941 ft 442 kts 326°
2026-05-05 22:01 -7.95801 -52.76148 37951 ft 442 kts 326°
2026-05-05 22:02 -7.90640 -52.79505 37951 ft 442 kts 326°
2026-05-05 22:02 -7.85477 -52.82863 37946 ft 441 kts 326°
2026-05-05 22:03 -7.80342 -52.86200 37947 ft 441 kts 326°
2026-05-05 22:03 -7.75182 -52.89554 37944 ft 441 kts 326°
2026-05-05 22:04 -7.70030 -52.92901 37946 ft 441 kts 326°
2026-05-05 22:04 -7.64877 -52.96249 37950 ft 440 kts 326°
2026-05-05 22:05 -7.59725 -52.99594 37945 ft 440 kts 326°
2026-05-05 22:05 -7.54573 -53.02939 37943 ft 440 kts 326°
2026-05-05 22:06 -7.49423 -53.06280 37945 ft 440 kts 326°
2026-05-05 22:06 -7.44267 -53.09626 37947 ft 440 kts 326°
2026-05-05 22:07 -7.39151 -53.12944 37942 ft 440 kts 326°
2026-05-05 22:07 -7.33991 -53.16290 37941 ft 440 kts 327°
2026-05-05 22:08 -7.28841 -53.19628 37943 ft 440 kts 327°
2026-05-05 22:08 -7.23714 -53.22951 37942 ft 440 kts 327°
2026-05-05 22:09 -7.18556 -53.26292 37944 ft 440 kts 327°
2026-05-05 22:09 -7.13403 -53.29629 37939 ft 441 kts 327°
2026-05-05 22:10 -7.08239 -53.32973 37943 ft 441 kts 327°
2026-05-05 22:10 -7.03081 -53.36313 37945 ft 441 kts 327°
2026-05-05 22:11 -6.97924 -53.39650 37940 ft 441 kts 327°
2026-05-05 22:11 -6.92767 -53.42987 37939 ft 441 kts 327°
2026-05-05 22:12 -6.87614 -53.46319 37943 ft 441 kts 327°
2026-05-05 22:12 -6.82488 -53.49634 37941 ft 441 kts 327°
2026-05-05 22:13 -6.77330 -53.52969 37942 ft 440 kts 327°
2026-05-05 22:13 -6.72179 -53.56298 37940 ft 441 kts 327°
2026-05-05 22:14 -6.67017 -53.59634 37939 ft 441 kts 327°
2026-05-05 22:14 -6.61850 -53.62971 37940 ft 441 kts 327°
2026-05-05 22:15 -6.56681 -53.66310 37942 ft 442 kts 327°
2026-05-05 22:15 -6.51533 -53.69634 37944 ft 442 kts 327°
2026-05-05 22:16 -6.46345 -53.72983 37945 ft 443 kts 327°
2026-05-05 22:16 -6.41152 -53.76334 37946 ft 444 kts 327°
2026-05-05 22:17 -6.35944 -53.79694 37941 ft 445 kts 327°
2026-05-05 22:17 -6.30728 -53.83059 37941 ft 445 kts 327°
2026-05-05 22:18 -6.25509 -53.86424 37948 ft 446 kts 327°
2026-05-05 22:18 -6.20315 -53.89773 37947 ft 446 kts 327°
2026-05-05 22:19 -6.15083 -53.93146 37945 ft 447 kts 327°
2026-05-05 22:19 -6.09850 -53.96518 37948 ft 447 kts 327°
2026-05-05 22:20 -6.04614 -53.99892 37948 ft 447 kts 327°
2026-05-05 22:20 -5.99370 -54.03269 37952 ft 447 kts 327°
2026-05-05 22:21 -5.94126 -54.06646 37950 ft 447 kts 327°
2026-05-05 22:21 -5.88922 -54.09997 37952 ft 447 kts 327°
2026-05-05 22:22 -5.83695 -54.13362 37952 ft 446 kts 327°
2026-05-05 22:22 -5.78462 -54.16730 37952 ft 445 kts 327°
2026-05-05 22:23 -5.73244 -54.20088 37952 ft 445 kts 327°
2026-05-05 22:23 -5.68066 -54.23419 37956 ft 444 kts 327°
2026-05-05 22:24 -5.62880 -54.26797 37951 ft 443 kts 327°
2026-05-05 22:24 -5.57720 -54.30223 37956 ft 443 kts 327°
2026-05-05 22:25 -5.52583 -54.33636 37956 ft 442 kts 327°
2026-05-05 22:25 -5.47450 -54.37037 37953 ft 442 kts 327°
2026-05-05 22:26 -5.42340 -54.40418 37960 ft 442 kts 327°
2026-05-05 22:26 -5.37206 -54.43813 37960 ft 441 kts 327°
2026-05-05 22:27 -5.32099 -54.47191 37959 ft 441 kts 327°
2026-05-05 22:27 -5.26968 -54.50584 37958 ft 441 kts 327°
2026-05-05 22:28 -5.21840 -54.53974 37959 ft 441 kts 327°
2026-05-05 22:28 -5.16711 -54.57364 37955 ft 441 kts 327°
2026-05-05 22:29 -5.11589 -54.60750 37959 ft 441 kts 327°
2026-05-05 22:29 -5.06449 -54.64146 37953 ft 441 kts 327°
2026-05-05 22:30 -5.01351 -54.67514 37956 ft 441 kts 327°
2026-05-05 22:30 -4.96221 -54.70904 37958 ft 441 kts 327°
2026-05-05 22:31 -4.91098 -54.74291 37960 ft 441 kts 327°
2026-05-05 22:31 -4.85971 -54.77679 37958 ft 441 kts 327°
2026-05-05 22:32 -4.80843 -54.81068 37955 ft 441 kts 327°
2026-05-05 22:32 -4.75753 -54.84431 37956 ft 441 kts 327°
2026-05-05 22:33 -4.70617 -54.87824 37963 ft 441 kts 327°
2026-05-05 22:33 -4.65502 -54.91203 37963 ft 441 kts 327°
2026-05-05 22:34 -4.60383 -54.94583 37958 ft 441 kts 327°
2026-05-05 22:34 -4.55259 -54.97966 37958 ft 440 kts 327°
2026-05-05 22:35 -4.50146 -55.01342 37960 ft 440 kts 327°
2026-05-05 22:35 -4.45053 -55.04703 37960 ft 440 kts 327°
2026-05-05 22:36 -4.39932 -55.08083 37962 ft 440 kts 327°
2026-05-05 22:36 -4.34821 -55.11455 37958 ft 440 kts 327°
2026-05-05 22:37 -4.29711 -55.14826 37958 ft 440 kts 327°
2026-05-05 22:37 -4.24596 -55.18200 37957 ft 440 kts 327°
2026-05-05 22:38 -4.19473 -55.21579 37958 ft 441 kts 327°
2026-05-05 22:38 -4.14385 -55.24934 37952 ft 441 kts 327°
2026-05-05 22:39 -4.09255 -55.28318 37954 ft 441 kts 327°
2026-05-05 22:39 -4.04982 -55.31135 37954 ft 442 kts 327°
2026-05-05 22:40 -3.99838 -55.34526 37951 ft 442 kts 327°
2026-05-05 22:40 -3.94687 -55.37925 37951 ft 443 kts 327°
2026-05-05 22:41 -3.89575 -55.41300 37952 ft 443 kts 327°
2026-05-05 22:41 -3.84419 -55.44704 37958 ft 444 kts 327°
2026-05-05 22:42 -3.79261 -55.48109 37951 ft 444 kts 327°
2026-05-05 22:42 -3.74080 -55.51528 37954 ft 445 kts 327°
2026-05-05 22:43 -3.68911 -55.54939 37954 ft 445 kts 327°
2026-05-05 22:43 -3.63766 -55.58334 37956 ft 446 kts 327°
2026-05-05 22:44 -3.58582 -55.61753 37955 ft 446 kts 327°
2026-05-05 22:44 -3.53392 -55.65177 37956 ft 446 kts 327°
2026-05-05 22:45 -3.48198 -55.68602 37958 ft 446 kts 327°
2026-05-05 22:45 -3.43008 -55.72025 37957 ft 446 kts 327°
2026-05-05 22:46 -3.37821 -55.75445 37961 ft 446 kts 327°
2026-05-05 22:46 -3.32659 -55.78848 37958 ft 446 kts 327°
2026-05-05 22:47 -3.27470 -55.82270 37958 ft 446 kts 327°
2026-05-05 22:47 -3.22273 -55.85696 37958 ft 446 kts 327°
2026-05-05 22:48 -3.17074 -55.89122 37958 ft 447 kts 327°
2026-05-05 22:48 -3.11882 -55.92538 37956 ft 447 kts 327°
2026-05-05 22:49 -3.06713 -55.95934 37957 ft 447 kts 327°
2026-05-05 22:49 -3.01505 -55.99357 37955 ft 448 kts 327°
2026-05-05 22:50 -2.96287 -56.02786 37957 ft 448 kts 327°
2026-05-05 22:50 -2.91071 -56.06215 37960 ft 449 kts 327°
2026-05-05 22:51 -2.85846 -56.09649 37963 ft 449 kts 327°
2026-05-05 22:51 -2.80630 -56.13077 37964 ft 449 kts 327°
2026-05-05 22:52 -2.75398 -56.16515 37965 ft 450 kts 327°
2026-05-05 22:52 -2.70160 -56.19957 37964 ft 450 kts 327°
2026-05-05 22:53 -2.64965 -56.23371 37965 ft 450 kts 327°
2026-05-05 22:53 -2.59714 -56.26837 37965 ft 450 kts 325°
2026-05-05 22:54 -2.54759 -56.30611 37973 ft 450 kts 322°
2026-05-05 22:54 -2.49872 -56.34527 37974 ft 450 kts 322°
2026-05-05 22:55 -2.44978 -56.38435 37962 ft 449 kts 322°
2026-05-05 22:55 -2.40081 -56.42310 37965 ft 448 kts 322°
2026-05-05 22:56 -2.35212 -56.46147 37970 ft 448 kts 322°
2026-05-05 22:56 -2.30322 -56.49997 37967 ft 447 kts 322°
2026-05-05 22:57 -2.25443 -56.53838 37969 ft 446 kts 322°
2026-05-05 22:57 -2.20561 -56.57682 37969 ft 446 kts 322°
2026-05-05 22:58 -2.15684 -56.61523 37974 ft 446 kts 322°
2026-05-05 22:58 -2.10806 -56.65363 37974 ft 445 kts 322°
2026-05-05 22:59 -2.05965 -56.69174 37980 ft 445 kts 322°
2026-05-05 22:59 -2.01099 -56.73005 37982 ft 445 kts 322°
2026-05-05 23:00 -1.93800 -56.78750 37979 ft 445 kts 322°
2026-05-05 23:00 -1.88936 -56.82579 37982 ft 445 kts 322°
2026-05-05 23:01 -1.84070 -56.86408 37981 ft 444 kts 322°
2026-05-05 23:01 -1.79207 -56.90235 37981 ft 444 kts 322°
2026-05-05 23:02 -1.74376 -56.94037 37986 ft 444 kts 322°
2026-05-05 23:02 -1.69520 -56.97858 37981 ft 444 kts 322°
2026-05-05 23:03 -1.64655 -57.01686 37981 ft 444 kts 322°
2026-05-05 23:03 -1.59802 -57.05504 37984 ft 444 kts 322°
2026-05-05 23:04 -1.54941 -57.09328 37982 ft 444 kts 322°
2026-05-05 23:04 -1.50082 -57.13150 37981 ft 444 kts 322°
2026-05-05 23:05 -1.45254 -57.16948 37982 ft 444 kts 322°
2026-05-05 23:05 -1.40389 -57.20775 37981 ft 445 kts 322°
2026-05-05 23:06 -1.35516 -57.24608 37982 ft 445 kts 322°
2026-05-05 23:06 -1.30651 -57.28434 37988 ft 445 kts 322°
2026-05-05 23:07 -1.25775 -57.32269 37985 ft 445 kts 322°
2026-05-05 23:07 -1.20933 -57.36077 37988 ft 445 kts 322°
2026-05-05 23:08 -1.16064 -57.39906 37984 ft 446 kts 322°
2026-05-05 23:08 -1.11186 -57.43741 37986 ft 446 kts 322°
2026-05-05 23:09 -1.06301 -57.47583 37981 ft 446 kts 322°
2026-05-05 23:09 -1.01423 -57.51418 37989 ft 447 kts 322°
2026-05-05 23:10 -0.96532 -57.55264 37987 ft 447 kts 322°
2026-05-05 23:10 -0.91642 -57.59108 37988 ft 447 kts 322°
2026-05-05 23:11 -0.86751 -57.62955 37986 ft 447 kts 322°
2026-05-05 23:11 -0.81859 -57.66800 37987 ft 447 kts 322°
2026-05-05 23:12 -0.76993 -57.70627 37983 ft 447 kts 322°
2026-05-05 23:12 -0.72105 -57.74471 37983 ft 447 kts 322°
2026-05-05 23:13 -0.67211 -57.78323 37982 ft 447 kts 321°
2026-05-05 23:13 -0.62762 -57.82656 37987 ft 447 kts 313°
2026-05-05 23:14 -0.58542 -57.87232 37988 ft 447 kts 313°
2026-05-05 23:14 -0.54308 -57.91810 37982 ft 447 kts 313°
2026-05-05 23:15 -0.50079 -57.96323 37986 ft 447 kts 314°
2026-05-05 23:15 -0.45805 -58.00856 37985 ft 447 kts 314°
2026-05-05 23:16 -0.41538 -58.05380 37985 ft 447 kts 314°
2026-05-05 23:16 -0.37266 -58.09910 37981 ft 447 kts 314°
2026-05-05 23:17 -0.33028 -58.14405 37991 ft 447 kts 314°
2026-05-05 23:17 -0.28757 -58.18935 37988 ft 447 kts 314°
2026-05-05 23:18 -0.24490 -58.23461 37990 ft 447 kts 314°
2026-05-05 23:18 -0.20227 -58.27983 37992 ft 447 kts 314°
2026-05-05 23:19 -0.15964 -58.32505 37994 ft 446 kts 314°
2026-05-05 23:19 -0.11704 -58.37024 37992 ft 446 kts 314°
2026-05-05 23:20 -0.07477 -58.41507 37995 ft 445 kts 315°
2026-05-05 23:20 -0.03241 -58.46002 38002 ft 444 kts 315°
2026-05-05 23:21 0.00989 -58.50488 37996 ft 443 kts 315°
2026-05-05 23:21 0.05214 -58.54961 37994 ft 443 kts 314°
2026-05-05 23:22 0.09449 -58.59444 38003 ft 443 kts 314°
2026-05-05 23:22 0.13681 -58.63927 37999 ft 445 kts 314°
2026-05-05 23:23 0.17936 -58.68435 37999 ft 447 kts 314°
2026-05-05 23:23 0.22191 -58.72943 37996 ft 450 kts 314°
2026-05-05 23:24 0.26503 -58.77510 38004 ft 453 kts 314°
2026-05-05 23:24 0.30848 -58.82114 38006 ft 456 kts 314°
2026-05-05 23:25 0.35208 -58.86733 37996 ft 458 kts 313°
2026-05-05 23:25 0.38854 -58.90597 37996 ft 460 kts 313°
2026-05-05 23:26 0.43246 -58.95249 37994 ft 461 kts 313°
2026-05-05 23:26 0.47647 -58.99912 37989 ft 460 kts 313°
2026-05-05 23:27 0.52740 -59.05309 37976 ft 459 kts 313°
2026-05-05 23:27 0.56408 -59.09195 37976 ft 456 kts 313°
2026-05-05 23:28 0.60713 -59.13757 37972 ft 452 kts 313°
2026-05-05 23:28 0.65021 -59.18322 37972 ft 449 kts 313°
2026-05-05 23:29 0.69297 -59.22853 37977 ft 447 kts 313°
2026-05-05 23:29 0.73567 -59.27380 37981 ft 446 kts 313°
2026-05-05 23:30 0.77826 -59.31893 37982 ft 446 kts 313°
2026-05-05 23:30 0.82145 -59.36306 37975 ft 446 kts 316°
2026-05-05 23:31 0.86715 -59.40507 37981 ft 446 kts 317°
2026-05-05 23:31 0.91311 -59.44690 37975 ft 447 kts 317°
2026-05-05 23:32 0.95884 -59.48903 37978 ft 447 kts 317°
2026-05-05 23:32 1.00446 -59.53129 37970 ft 447 kts 316°
2026-05-05 23:33 1.05017 -59.57367 37977 ft 447 kts 316°
2026-05-05 23:33 1.09555 -59.61572 37977 ft 448 kts 316°
2026-05-05 23:34 1.14123 -59.65804 37982 ft 448 kts 317°
2026-05-05 23:34 1.18709 -59.70046 37500 ft 453 kts 317°
2026-05-05 23:35 1.21012 -59.72174 36988 ft 451 kts 317°
2026-05-05 23:35 1.23319 -59.74307 36386 ft 450 kts 317°
2026-05-05 23:35 1.25622 -59.76436 35776 ft 450 kts 317°
2026-05-05 23:35 1.27923 -59.78565 35217 ft 450 kts 317°
2026-05-05 23:36 1.30215 -59.80685 34707 ft 448 kts 317°
2026-05-05 23:36 1.32497 -59.82796 34233 ft 445 kts 317°
2026-05-05 23:36 1.34760 -59.84889 33701 ft 444 kts 318°
2026-05-05 23:36 1.37020 -59.86981 33194 ft 441 kts 318°
2026-05-05 23:37 1.39266 -59.89059 32711 ft 437 kts 318°
2026-05-05 23:37 1.41490 -59.91116 32239 ft 434 kts 318°
2026-05-05 23:37 1.43670 -59.93133 31781 ft 431 kts 318°
2026-05-05 23:37 1.45894 -59.95191 31306 ft 429 kts 318°
2026-05-05 23:38 1.48056 -59.97192 30838 ft 427 kts 319°
2026-05-05 23:38 1.50229 -59.99204 30391 ft 425 kts 319°
2026-05-05 23:38 1.52391 -60.01204 29904 ft 423 kts 319°
2026-05-05 23:38 1.54555 -60.03206 29388 ft 420 kts 319°
2026-05-05 23:39 1.56783 -60.05060 28879 ft 415 kts 326°
2026-05-05 23:39 1.59257 -60.06515 28388 ft 409 kts 335°
2026-05-05 23:39 1.61799 -60.07763 27919 ft 405 kts 336°
2026-05-05 23:39 1.64329 -60.08986 27440 ft 403 kts 336°
2026-05-05 23:40 1.66846 -60.10203 26979 ft 400 kts 336°
2026-05-05 23:40 1.69335 -60.11413 26502 ft 397 kts 335°
2026-05-05 23:40 1.71788 -60.12612 26026 ft 395 kts 335°
2026-05-05 23:40 1.74250 -60.13822 25553 ft 394 kts 335°
2026-05-05 23:41 1.76708 -60.15033 25067 ft 392 kts 335°
2026-05-05 23:41 1.79155 -60.16240 24590 ft 391 kts 335°
2026-05-05 23:41 1.81589 -60.17442 24119 ft 390 kts 335°
2026-05-05 23:41 1.84020 -60.18643 23632 ft 389 kts 335°
2026-05-05 23:42 1.86442 -60.19840 23082 ft 388 kts 335°
2026-05-05 23:42 1.88854 -60.21033 22578 ft 384 kts 335°
2026-05-05 23:42 1.91249 -60.22217 22096 ft 381 kts 335°
2026-05-05 23:42 1.93616 -60.23387 21615 ft 378 kts 335°
2026-05-05 23:43 1.95938 -60.24535 21148 ft 375 kts 335°
2026-05-05 23:43 1.98270 -60.25687 20678 ft 372 kts 336°
2026-05-05 23:43 2.00587 -60.26833 20199 ft 370 kts 336°
2026-05-05 23:43 2.02889 -60.27971 19737 ft 368 kts 336°
2026-05-05 23:44 2.05184 -60.29105 19239 ft 367 kts 336°
2026-05-05 23:44 2.07463 -60.30231 18773 ft 365 kts 336°
2026-05-05 23:44 2.09742 -60.31358 18287 ft 364 kts 336°
2026-05-05 23:44 2.12006 -60.32477 17763 ft 362 kts 336°
2026-05-05 23:45 2.14256 -60.33589 17274 ft 359 kts 336°
2026-05-05 23:45 2.16474 -60.34686 16804 ft 355 kts 336°
2026-05-05 23:45 2.18690 -60.35782 16340 ft 352 kts 335°
2026-05-05 23:45 2.20872 -60.36860 15882 ft 349 kts 335°
2026-05-05 23:46 2.23050 -60.37937 15428 ft 347 kts 335°
2026-05-05 23:46 2.25209 -60.39004 14945 ft 345 kts 335°
2026-05-05 23:46 2.27346 -60.40061 14507 ft 342 kts 335°
2026-05-05 23:46 2.29483 -60.41117 14034 ft 341 kts 335°
2026-05-05 23:47 2.31613 -60.42171 13537 ft 340 kts 335°
2026-05-05 23:47 2.33695 -60.43200 13061 ft 337 kts 335°
2026-05-05 23:47 2.35783 -60.44233 12599 ft 334 kts 335°
2026-05-05 23:47 2.37861 -60.45261 12162 ft 330 kts 335°
2026-05-05 23:48 2.39902 -60.46271 11709 ft 327 kts 335°
2026-05-05 23:48 2.41945 -60.47281 11252 ft 324 kts 335°
2026-05-05 23:48 2.43953 -60.48275 10817 ft 321 kts 336°
2026-05-05 23:48 2.45955 -60.49265 10354 ft 320 kts 336°
2026-05-05 23:49 2.47930 -60.50242 10102 ft 311 kts 336°
2026-05-05 23:49 2.49848 -60.51192 9853 ft 303 kts 336°
2026-05-05 23:49 2.51687 -60.52103 9529 ft 296 kts 336°
2026-05-05 23:49 2.53559 -60.53028 9024 ft 299 kts 336°
2026-05-05 23:50 2.55426 -60.53950 8583 ft 298 kts 336°
2026-05-05 23:50 2.57262 -60.54858 8192 ft 296 kts 336°
2026-05-05 23:50 2.59073 -60.55754 7794 ft 293 kts 336°
2026-05-05 23:50 2.60894 -60.56655 7422 ft 290 kts 336°
2026-05-05 23:51 2.62696 -60.57546 7036 ft 287 kts 336°
2026-05-05 23:51 2.64481 -60.58430 6670 ft 285 kts 336°
2026-05-05 23:51 2.66251 -60.59306 6289 ft 282 kts 337°
2026-05-05 23:51 2.68003 -60.60173 5884 ft 280 kts 337°
2026-05-05 23:52 2.69743 -60.61034 5507 ft 277 kts 337°
2026-05-05 23:52 2.71457 -60.61882 5141 ft 274 kts 337°
2026-05-05 23:52 2.73160 -60.62725 4777 ft 271 kts 337°
2026-05-05 23:52 2.74848 -60.63560 4408 ft 269 kts 337°
2026-05-05 23:53 2.76518 -60.64386 4058 ft 267 kts 337°
2026-05-05 23:53 2.78179 -60.65208 3705 ft 265 kts 337°
2026-05-05 23:53 2.79824 -60.66022 3386 ft 263 kts 337°
2026-05-05 23:53 2.81430 -60.66819 3288 ft 252 kts 337°
2026-05-05 23:54 2.82975 -60.67584 3167 ft 243 kts 337°
2026-05-05 23:54 2.84400 -60.68403 3029 ft 239 kts 321°
2026-05-05 23:54 2.85277 -60.69777 2930 ft 232 kts 289°
2026-05-05 23:54 2.85563 -60.71324 2809 ft 220 kts 277°
2026-05-05 23:55 2.85704 -60.72802 2661 ft 204 kts 277°
2026-05-05 23:55 2.85828 -60.74142 2519 ft 182 kts 277°
2026-05-05 23:55 2.85942 -60.75310 2453 ft 159 kts 277°
2026-05-05 23:55 2.86052 -60.76383 2354 ft 153 kts 277°
2026-05-05 23:56 2.86164 -60.77442 2258 ft 153 kts 277°
2026-05-05 23:56 2.86277 -60.78508 2174 ft 154 kts 277°
2026-05-05 23:56 2.86391 -60.79571 2064 ft 153 kts 277°
2026-05-05 23:56 2.86469 -60.80631 2005 ft 153 kts 266°
2026-05-05 23:57 2.86207 -60.81646 2036 ft 151 kts 246°
2026-05-05 23:57 2.85704 -60.82565 2033 ft 150 kts 230°
2026-05-05 23:57 2.84999 -60.83308 2012 ft 144 kts 212°
2026-05-05 23:57 2.84169 -60.83799 1992 ft 136 kts 195°
2026-05-05 23:58 2.83245 -60.84043 2022 ft 139 kts 179°
2026-05-05 23:58 2.82302 -60.84028 2021 ft 132 kts 163°
2026-05-05 23:58 2.81454 -60.83775 2010 ft 124 kts 150°
2026-05-05 23:58 2.80748 -60.83344 2004 ft 118 kts 137°
2026-05-05 23:59 2.80175 -60.82761 2025 ft 120 kts 125°
2026-05-05 23:59 2.79746 -60.82038 2015 ft 120 kts 112°
2026-05-05 23:59 2.79504 -60.81255 2019 ft 117 kts 101°
2026-05-05 23:59 2.79377 -60.80456 2016 ft 116 kts 92°
2026-05-06 00:00 2.79541 -60.79674 2025 ft 114 kts 73°
2026-05-06 00:00 2.79801 -60.78913 2012 ft 118 kts 72°
2026-05-06 00:00 2.80093 -60.78124 1964 ft 122 kts 72°
2026-05-06 00:00 2.80423 -60.77333 1805 ft 123 kts 68°
2026-05-06 00:01 2.80790 -60.76570 1631 ft 119 kts 66°
2026-05-06 00:01 2.81160 -60.75831 1492 ft 120 kts 66°
2026-05-06 00:01 2.81537 -60.75089 1360 ft 122 kts 65°
2026-05-06 00:01 2.81917 -60.74341 1207 ft 118 kts 66°
2026-05-06 00:02 2.82298 -60.73591 1040 ft 124 kts 65°
2026-05-06 00:02 2.82694 -60.72812 885 ft 124 kts 65°
2026-05-06 00:02 2.83093 -60.72028 733 ft 132 kts 64°
2026-05-06 00:02 2.83512 -60.71206 573 ft 131 kts 66°
2026-05-06 00:03 2.83934 -60.70380 370 ft 135 kts 68°
2026-05-06 00:03 2.84341 -60.69570 277 ft 119 kts 64°
2026-05-06 00:03 2.84602 -60.69063 279 ft 28 kts 63°
2026-05-06 00:03 2.84644 -60.68979 280 ft 12 kts 64°
2026-05-06 00:04 2.84655 -60.68947 280 ft 4 kts 57°
2026-05-06 00:04 2.84671 -60.68922 282 ft 4 kts 57°
2026-05-06 00:04 2.84687 -60.68897 280 ft 4 kts 57°
2026-05-06 00:04 2.84701 -60.68872 280 ft 4 kts 61°
2026-05-06 00:05 2.84728 -60.68823 283 ft 4 kts 61°
2026-05-06 00:05 2.84740 -60.68800 284 ft 4 kts 61°
2026-05-06 00:05 2.84752 -60.68776 281 ft 4 kts 66°
2026-05-06 00:06 2.84778 -60.68718 280 ft 12 kts 66°
2026-05-06 00:06 2.84812 -60.68640 282 ft 12 kts 66°
2026-05-06 00:06 2.84838 -60.68591 279 ft 6 kts 60°
2026-05-06 00:06 2.84857 -60.68557 279 ft 5 kts 60°
2026-05-06 00:07 2.84876 -60.68524 279 ft 5 kts 60°
2026-05-06 00:07 2.84890 -60.68490 279 ft 5 kts 84°
2026-05-06 00:07 2.84868 -60.68463 282 ft 5 kts 154°
2026-05-06 00:07 2.84835 -60.68447 279 ft 5 kts 154°
2026-05-06 00:08 2.84803 -60.68431 279 ft 5 kts 154°
2026-05-06 00:08 2.84769 -60.68425 279 ft 5 kts 197°
2026-05-06 00:08 2.84745 -60.68452 279 ft 5 kts 249°
2026-05-06 00:08 2.84729 -60.68485 284 ft 5 kts 243°
2026-05-06 00:09 2.84712 -60.68518 279 ft 5 kts 242°
2026-05-06 00:09 2.84696 -60.68550 281 ft 5 kts 246°
2026-05-06 00:09 2.84682 -60.68583 280 ft 5 kts 246°
2026-05-06 00:09 2.84668 -60.68614 279 ft 5 kts 246°
2026-05-06 00:10 2.84654 -60.68646 282 ft 5 kts 247°
2026-05-06 00:10 2.84641 -60.68676 282 ft 5 kts 247°
2026-05-06 00:10 2.84629 -60.68706 282 ft 5 kts 247°
2026-05-06 00:10 2.84617 -60.68735 279 ft 4 kts 247°
2026-05-06 00:11 2.84605 -60.68763 279 ft 4 kts 247°
2026-05-06 00:11 2.84597 -60.68782 283 ft 4 kts 247°
2026-05-06 00:11 2.84585 -60.68809 284 ft 4 kts 247°
2026-05-06 00:11 2.84574 -60.68836 279 ft 4 kts 248°
2026-05-06 00:12 2.84560 -60.68860 279 ft 4 kts 233°
2026-05-06 00:12 2.84542 -60.68885 279 ft 5 kts 234°
2026-05-06 00:12 2.84523 -60.68911 279 ft 5 kts 234°
2026-05-06 00:12 2.84504 -60.68937 281 ft 5 kts 234°
2026-05-06 00:13 2.84485 -60.68962 279 ft 4 kts 234°
2026-05-06 00:13 2.84468 -60.68987 279 ft 4 kts 234°
2026-05-06 00:13 2.84451 -60.69011 279 ft 4 kts 242°
2026-05-06 00:13 2.84438 -60.69038 281 ft 4 kts 242°
2026-05-06 00:14 2.84424 -60.69063 282 ft 4 kts 243°
2026-05-06 00:14 2.84412 -60.69088 283 ft 4 kts 243°
2026-05-06 00:14 2.84399 -60.69112 279 ft 4 kts 243°
2026-05-06 00:14 2.84387 -60.69135 278 ft 4 kts 243°
2026-05-06 00:15 2.84375 -60.69158 278 ft 4 kts 243°
2026-05-06 00:15 2.84364 -60.69180 278 ft 4 kts 243°
2026-05-06 00:15 2.84353 -60.69202 282 ft 3 kts 243°
2026-05-06 00:15 2.84342 -60.69222 278 ft 3 kts 243°
2026-05-06 00:16 2.84332 -60.69242 278 ft 3 kts 242°
2026-05-06 00:16 2.84312 -60.69244 278 ft 3 kts 150°
2026-05-06 00:16 2.84293 -60.69233 281 ft 3 kts 150°
2026-05-06 00:16 2.84273 -60.69224 279 ft 3 kts 159°
2026-05-06 00:17 2.84253 -60.69215 279 ft 3 kts 154°
2026-05-06 00:17 2.84243 -60.69210 279 ft 0 kts 153°
2026-05-06 00:17 2.84231 -60.69203 281 ft 5 kts 153°
2026-05-06 00:17 2.84227 -60.69201 282 ft 0 kts 153°